Time,TemperatureF,DewpointF,PressureIn,WindDirection,WindDirectionDegrees,WindSpeedMPH,WindSpeedGustMPH,Humidity,HourlyPrecipIn,Conditions,Clouds,dailyrainin,SolarRadiationWatts/m^2,SoftwareType,DateUTC
2013-10-28 00:05:00,62.9,59.9,30.05,South,172,0.0,0.0,90,0.00,,,0.00,0,Wunderground v.1.15,2013-10-28 05:05:00,
2013-10-28 00:10:00,62.9,59.9,30.05,South,172,0.0,0.0,90,0.00,,,0.00,0,Wunderground v.1.15,2013-10-28 05:10:00,
2013-10-28 00:15:00,62.9,59.9,30.05,South,172,0.0,0.0,90,0.00,,,0.00,0,Wunderground v.1.15,2013-10-28 05:15:00,
2013-10-28 00:20:00,62.9,59.9,30.05,South,172,0.0,0.0,90,0.00,,,0.00,0,Wunderground v.1.15,2013-10-28 05:20:00,
2013-10-28 00:33:00,62.9,59.9,30.05,SSE,152,0.0,0.0,90,0.00,,,0.00,0,Wunderground v.1.15,2013-10-28 05:33:00,
2013-10-28 00:43:00,63.0,59.7,30.05,SSE,156,0.0,0.0,89,0.00,,,0.00,0,Wunderground v.1.15,2013-10-28 05:43:00,
2013-10-28 00:53:00,63.1,59.8,30.05,SSE,154,0.0,0.0,89,0.00,,,0.00,0,Wunderground v.1.15,2013-10-28 05:53:00,
2013-10-28 00:59:00,63.2,59.9,30.05,SSE,154,0.0,0.0,89,0.00,,,0.00,0,Wunderground v.1.15,2013-10-28 05:59:00,
2013-10-28 01:05:00,63.2,59.9,30.04,East,79,0.0,0.0,89,0.00,,,0.00,0,Wunderground v.1.15,2013-10-28 06:05:00,
2013-10-28 01:10:00,63.2,59.9,30.04,SE,125,0.0,2.0,89,0.00,,,0.00,0,Wunderground v.1.15,2013-10-28 06:10:00,
2013-10-28 01:16:00,63.2,59.9,30.04,South,190,0.0,4.0,89,0.00,,,0.00,0,Wunderground v.1.15,2013-10-28 06:16:00,
2013-10-28 01:23:00,63.1,59.8,30.04,SSE,160,0.0,0.0,89,0.00,,,0.00,0,Wunderground v.1.15,2013-10-28 06:23:00,
2013-10-28 01:28:00,63.1,59.8,30.04,South,172,0.0,0.0,89,0.00,,,0.00,0,Wunderground v.1.15,2013-10-28 06:28:00,
2013-10-28 01:34:00,63.0,59.7,30.04,South,176,0.0,0.0,89,0.00,,,0.00,0,Wunderground v.1.15,2013-10-28 06:34:00,
2013-10-28 01:39:00,62.9,59.6,30.04,SE,130,0.0,0.0,89,0.00,,,0.00,0,Wunderground v.1.15,2013-10-28 06:39:00,
2013-10-28 01:56:00,62.7,59.7,30.05,SSE,154,0.0,0.0,90,0.00,,,0.00,0,Wunderground v.1.15,2013-10-28 06:56:00,
2013-10-28 02:02:00,62.6,59.9,30.04,South,171,0.0,1.0,91,0.00,,,0.00,0,Wunderground v.1.15,2013-10-28 07:02:00,
2013-10-28 02:07:00,62.6,59.9,30.05,SSE,167,0.0,1.0,91,0.00,,,0.00,0,Wunderground v.1.15,2013-10-28 07:07:00,
2013-10-28 02:12:00,62.5,59.8,30.04,SSE,155,0.0,1.0,91,0.00,,,0.00,0,Wunderground v.1.15,2013-10-28 07:12:00,
2013-10-28 02:18:00,62.5,59.8,30.04,SSE,155,0.0,1.0,91,0.00,,,0.00,0,Wunderground v.1.15,2013-10-28 07:18:00,
2013-10-28 02:23:00,62.5,59.8,30.04,SSE,156,0.0,1.0,91,0.00,,,0.00,0,Wunderground v.1.15,2013-10-28 07:23:00,
2013-10-28 02:28:00,62.5,59.8,30.04,SSE,156,0.0,1.0,91,0.00,,,0.00,0,Wunderground v.1.15,2013-10-28 07:28:00,
2013-10-28 02:33:00,62.5,59.8,30.04,SSE,153,0.0,1.0,91,0.00,,,0.00,0,Wunderground v.1.15,2013-10-28 07:33:00,
2013-10-28 02:38:00,62.5,59.8,30.04,SSE,152,0.0,1.0,91,0.00,,,0.00,0,Wunderground v.1.15,2013-10-28 07:38:00,
2013-10-28 02:49:00,62.3,59.6,30.03,SSE,159,0.0,1.0,91,0.00,,,0.00,0,Wunderground v.1.15,2013-10-28 07:49:00,
2013-10-28 02:54:00,62.3,59.9,30.04,SSE,159,0.0,1.0,92,0.00,,,0.00,0,Wunderground v.1.15,2013-10-28 07:54:00,
2013-10-28 03:00:00,62.2,59.8,30.03,SSE,158,0.0,1.0,92,0.00,,,0.00,0,Wunderground v.1.15,2013-10-28 08:00:00,
2013-10-28 03:09:00,62.1,59.7,30.03,SSE,158,0.0,1.0,92,0.00,,,0.00,0,Wunderground v.1.15,2013-10-28 08:09:00,
2013-10-28 03:19:00,62.2,59.8,30.03,SSE,158,0.0,1.0,92,0.00,,,0.00,0,Wunderground v.1.15,2013-10-28 08:19:00,
2013-10-28 03:29:00,62.1,59.7,30.03,SSE,157,0.0,1.0,92,0.00,,,0.00,0,Wunderground v.1.15,2013-10-28 08:29:00,
2013-10-28 03:40:00,62.2,59.8,30.03,SSE,161,0.0,1.0,92,0.00,,,0.00,0,Wunderground v.1.15,2013-10-28 08:40:00,
2013-10-28 03:50:00,62.1,59.7,30.03,South,181,0.0,1.0,92,0.00,,,0.00,0,Wunderground v.1.15,2013-10-28 08:50:00,
2013-10-28 03:56:00,62.0,59.6,30.04,South,184,0.0,1.0,92,0.00,,,0.00,0,Wunderground v.1.15,2013-10-28 08:56:00,
2013-10-28 04:02:00,61.9,59.9,30.04,South,184,0.0,1.0,93,0.00,,,0.00,0,Wunderground v.1.15,2013-10-28 09:02:00,
2013-10-28 04:11:00,61.7,59.7,30.04,South,184,0.0,1.0,93,0.00,,,0.00,0,Wunderground v.1.15,2013-10-28 09:11:00,
2013-10-28 04:17:00,61.6,59.6,30.04,South,184,0.0,1.0,93,0.00,,,0.00,0,Wunderground v.1.15,2013-10-28 09:17:00,
2013-10-28 04:22:00,61.5,59.5,30.04,South,183,0.0,1.0,93,0.00,,,0.00,0,Wunderground v.1.15,2013-10-28 09:22:00,
2013-10-28 04:32:00,61.3,59.6,30.04,South,183,0.0,1.0,94,0.00,,,0.00,0,Wunderground v.1.15,2013-10-28 09:32:00,
2013-10-28 04:37:00,61.2,59.5,30.04,South,183,0.0,1.0,94,0.00,,,0.00,0,Wunderground v.1.15,2013-10-28 09:37:00,
2013-10-28 04:43:00,61.1,59.4,30.04,South,183,0.0,1.0,94,0.00,,,0.00,0,Wunderground v.1.15,2013-10-28 09:43:00,
2013-10-28 04:53:00,61.1,59.4,30.05,South,182,0.0,1.0,94,0.00,,,0.00,0,Wunderground v.1.15,2013-10-28 09:53:00,
2013-10-28 04:58:00,61.1,59.4,30.05,South,182,0.0,1.0,94,0.00,,,0.00,0,Wunderground v.1.15,2013-10-28 09:58:00,
2013-10-28 05:04:00,61.1,59.4,30.05,South,179,0.0,1.0,94,0.00,,,0.00,0,Wunderground v.1.15,2013-10-28 10:04:00,
2013-10-28 05:09:00,61.2,59.5,30.05,South,177,0.0,1.0,94,0.00,,,0.00,0,Wunderground v.1.15,2013-10-28 10:09:00,
2013-10-28 05:14:00,61.2,59.5,30.05,South,177,0.0,1.0,94,0.00,,,0.00,0,Wunderground v.1.15,2013-10-28 10:14:00,
2013-10-28 05:19:00,61.2,59.5,30.06,South,177,0.0,1.0,94,0.00,,,0.00,0,Wunderground v.1.15,2013-10-28 10:19:00,
2013-10-28 05:25:00,61.2,59.5,30.06,South,177,0.0,1.0,94,0.00,,,0.00,0,Wunderground v.1.15,2013-10-28 10:25:00,
2013-10-28 05:30:00,61.1,59.4,30.06,South,177,0.0,1.0,94,0.00,,,0.00,0,Wunderground v.1.15,2013-10-28 10:30:00,
2013-10-28 05:35:00,61.1,59.4,30.06,South,177,0.0,1.0,94,0.00,,,0.00,0,Wunderground v.1.15,2013-10-28 10:35:00,
2013-10-28 05:40:00,61.0,59.3,30.06,South,177,0.0,1.0,94,0.00,,,0.00,0,Wunderground v.1.15,2013-10-28 10:40:00,
2013-10-28 05:45:00,60.9,59.2,30.06,South,177,0.0,1.0,94,0.00,,,0.00,0,Wunderground v.1.15,2013-10-28 10:45:00,
2013-10-28 05:50:00,60.8,59.4,30.06,South,177,0.0,1.0,95,0.00,,,0.00,0,Wunderground v.1.15,2013-10-28 10:50:00,
2013-10-28 05:55:00,60.7,59.0,30.07,South,177,0.0,1.0,94,0.00,,,0.00,0,Wunderground v.1.15,2013-10-28 10:55:00,
2013-10-28 06:00:00,60.6,59.2,30.07,South,177,0.0,1.0,95,0.00,,,0.00,0,Wunderground v.1.15,2013-10-28 11:00:00,
2013-10-28 06:06:00,60.5,59.1,30.07,South,177,0.0,1.0,95,0.00,,,0.00,0,Wunderground v.1.15,2013-10-28 11:06:00,
2013-10-28 06:12:00,60.6,59.2,30.07,South,177,0.0,1.0,95,0.00,,,0.00,0,Wunderground v.1.15,2013-10-28 11:12:00,
2013-10-28 06:17:00,60.6,59.5,30.07,South,177,0.0,1.0,96,0.00,,,0.00,0,Wunderground v.1.15,2013-10-28 11:17:00,
2013-10-28 06:22:00,60.7,59.3,30.07,South,177,0.0,1.0,95,0.00,,,0.00,0,Wunderground v.1.15,2013-10-28 11:22:00,
2013-10-28 06:27:00,60.7,59.3,30.07,South,177,0.0,1.0,95,0.00,,,0.00,0,Wunderground v.1.15,2013-10-28 11:27:00,
2013-10-28 06:32:00,60.7,59.6,30.07,South,177,0.0,1.0,96,0.00,,,0.00,0,Wunderground v.1.15,2013-10-28 11:32:00,
2013-10-28 06:37:00,60.7,59.3,30.07,South,177,0.0,1.0,95,0.00,,,0.00,0,Wunderground v.1.15,2013-10-28 11:37:00,
2013-10-28 06:42:00,60.7,59.3,30.08,South,177,0.0,1.0,95,0.00,,,0.00,0,Wunderground v.1.15,2013-10-28 11:42:00,
2013-10-28 06:48:00,60.6,59.5,30.08,South,177,0.0,1.0,96,0.00,,,0.00,0,Wunderground v.1.15,2013-10-28 11:48:00,
2013-10-28 06:54:00,60.7,59.6,30.08,South,177,0.0,1.0,96,0.00,,,0.00,0,Wunderground v.1.15,2013-10-28 11:54:00,
2013-10-28 06:59:00,60.8,59.7,30.09,South,177,0.0,1.0,96,0.00,,,0.00,0,Wunderground v.1.15,2013-10-28 11:59:00,
2013-10-28 07:09:00,61.0,59.9,30.09,South,177,0.0,1.0,96,0.00,,,0.00,0,Wunderground v.1.15,2013-10-28 12:09:00,
2013-10-28 07:19:00,61.2,60.1,30.10,South,177,0.0,1.0,96,0.00,,,0.00,0,Wunderground v.1.15,2013-10-28 12:19:00,
2013-10-28 07:29:00,61.2,60.1,30.10,South,177,0.0,1.0,96,0.00,,,0.00,14,Wunderground v.1.15,2013-10-28 12:29:00,
2013-10-28 07:35:00,61.2,60.1,30.10,South,177,0.0,1.0,96,0.00,,,0.00,14,Wunderground v.1.15,2013-10-28 12:35:00,
2013-10-28 07:41:00,61.2,60.1,30.10,South,177,0.0,1.0,96,0.00,,,0.00,30,Wunderground v.1.15,2013-10-28 12:41:00,
2013-10-28 07:50:00,61.3,60.2,30.10,South,177,0.0,1.0,96,0.00,,,0.00,74,Wunderground v.1.15,2013-10-28 12:50:00,
2013-10-28 07:55:00,61.4,60.2,30.11,South,177,0.0,1.0,96,0.00,,,0.00,47,Wunderground v.1.15,2013-10-28 12:55:00,
2013-10-28 08:00:00,61.6,60.4,30.11,South,175,0.0,1.0,96,0.00,,,0.00,40,Wunderground v.1.15,2013-10-28 13:00:00,
2013-10-28 08:11:00,62.0,60.6,30.12,South,175,0.0,1.0,95,0.00,,,0.00,54,Wunderground v.1.15,2013-10-28 13:11:00,
2013-10-28 08:17:00,62.3,60.8,30.12,South,175,0.0,1.0,95,0.00,,,0.00,39,Wunderground v.1.15,2013-10-28 13:17:00,
2013-10-28 08:22:00,62.5,61.0,30.12,South,175,0.0,1.0,95,0.00,,,0.00,40,Wunderground v.1.15,2013-10-28 13:22:00,
2013-10-28 08:31:00,62.9,61.4,30.12,South,175,0.0,1.0,95,0.00,,,0.00,142,Wunderground v.1.15,2013-10-28 13:31:00,
2013-10-28 08:36:00,63.4,61.6,30.12,South,175,0.0,1.0,94,0.00,,,0.00,49,Wunderground v.1.15,2013-10-28 13:36:00,
2013-10-28 08:41:00,63.7,61.9,30.12,South,175,0.0,1.0,94,0.00,,,0.00,179,Wunderground v.1.15,2013-10-28 13:41:00,
2013-10-28 08:52:00,64.8,62.4,30.13,South,180,0.0,1.0,92,0.00,,,0.00,230,Wunderground v.1.15,2013-10-28 13:52:00,
2013-10-28 08:57:00,65.2,62.5,30.13,South,181,0.0,1.0,91,0.00,,,0.00,60,Wunderground v.1.15,2013-10-28 13:57:00,
2013-10-28 09:02:00,65.6,62.9,30.13,South,176,0.0,1.0,91,0.00,,,0.00,258,Wunderground v.1.15,2013-10-28 14:02:00,
2013-10-28 09:13:00,66.6,63.3,30.13,South,187,0.0,1.0,89,0.00,,,0.00,295,Wunderground v.1.15,2013-10-28 14:13:00,
2013-10-28 09:18:00,67.1,63.4,30.13,South,182,0.0,1.0,88,0.00,,,0.00,320,Wunderground v.1.15,2013-10-28 14:18:00,
2013-10-28 09:28:00,67.7,63.7,30.13,SSW,194,0.0,5.0,87,0.00,,,0.00,69,Wunderground v.1.15,2013-10-28 14:28:00,
2013-10-28 09:33:00,67.9,63.9,30.14,SSW,195,0.0,1.0,87,0.00,,,0.00,346,Wunderground v.1.15,2013-10-28 14:33:00,
2013-10-28 09:39:00,68.5,64.1,30.13,SSW,208,0.0,6.0,86,0.00,,,0.00,364,Wunderground v.1.15,2013-10-28 14:39:00,
2013-10-28 09:44:00,69.0,64.3,30.14,SSW,198,1.0,5.0,85,0.00,,,0.00,380,Wunderground v.1.15,2013-10-28 14:44:00,
2013-10-28 09:49:00,69.5,64.8,30.14,SSW,201,0.0,5.0,85,0.00,,,0.00,394,Wunderground v.1.15,2013-10-28 14:49:00,
2013-10-28 09:54:00,70.0,64.9,30.14,SSW,199,0.0,1.0,84,0.00,,,0.00,404,Wunderground v.1.15,2013-10-28 14:54:00,
2013-10-28 09:59:00,70.3,64.9,30.14,SW,222,0.0,1.0,83,0.00,,,0.00,417,Wunderground v.1.15,2013-10-28 14:59:00,
2013-10-28 10:04:00,70.7,65.3,30.14,SW,220,0.0,1.0,83,0.00,,,0.00,431,Wunderground v.1.15,2013-10-28 15:04:00,
2013-10-28 10:09:00,71.0,65.2,30.14,South,169,0.0,1.0,82,0.00,,,0.00,439,Wunderground v.1.15,2013-10-28 15:09:00,
2013-10-28 10:14:00,71.3,65.5,30.14,SSE,160,0.0,1.0,82,0.00,,,0.00,455,Wunderground v.1.15,2013-10-28 15:14:00,
2013-10-28 10:19:00,71.6,65.5,30.14,South,174,0.0,1.0,81,0.00,,,0.00,517,Wunderground v.1.15,2013-10-28 15:19:00,
2013-10-28 10:33:00,72.8,66.3,30.14,SSW,194,0.0,1.0,80,0.00,,,0.00,536,Wunderground v.1.15,2013-10-28 15:33:00,
2013-10-28 10:38:00,73.0,65.7,30.14,SSW,205,0.0,3.0,78,0.00,,,0.00,531,Wunderground v.1.15,2013-10-28 15:38:00,
2013-10-28 10:43:00,73.0,65.7,30.14,SSW,193,1.0,6.0,78,0.00,,,0.00,529,Wunderground v.1.15,2013-10-28 15:43:00,
2013-10-28 10:48:00,73.2,65.9,30.14,South,182,1.0,6.0,78,0.00,,,0.00,538,Wunderground v.1.15,2013-10-28 15:48:00,
2013-10-28 10:53:00,73.5,66.6,30.14,WSW,248,1.0,6.0,79,0.00,,,0.00,557,Wunderground v.1.15,2013-10-28 15:53:00,
2013-10-28 10:58:00,73.8,66.5,30.14,SW,232,1.0,6.0,78,0.00,,,0.00,555,Wunderground v.1.15,2013-10-28 15:58:00,
2013-10-28 11:03:00,73.9,66.2,30.14,WSW,244,0.0,1.0,77,0.00,,,0.00,571,Wunderground v.1.15,2013-10-28 16:03:00,
2013-10-28 11:08:00,73.9,66.2,30.14,SW,217,2.0,5.0,77,0.00,,,0.00,585,Wunderground v.1.15,2013-10-28 16:08:00,
2013-10-28 11:13:00,74.1,66.8,30.14,WSW,240,1.0,1.0,78,0.00,,,0.00,596,Wunderground v.1.15,2013-10-28 16:13:00,
2013-10-28 11:18:00,74.5,67.2,30.14,SW,223,0.0,6.0,78,0.00,,,0.00,638,Wunderground v.1.15,2013-10-28 16:18:00,
2013-10-28 11:23:00,74.6,66.9,30.14,SSW,203,1.0,1.0,77,0.00,,,0.00,638,Wunderground v.1.15,2013-10-28 16:23:00,
2013-10-28 11:31:00,74.8,66.7,30.14,WSW,246,0.0,1.0,76,0.00,,,0.00,701,Wunderground v.1.15,2013-10-28 16:31:00,
2013-10-28 11:37:00,74.9,66.1,30.14,SW,231,1.0,6.0,74,0.00,,,0.00,742,Wunderground v.1.15,2013-10-28 16:37:00,
2013-10-28 11:42:00,75.0,66.5,30.14,WSW,251,1.0,1.0,75,0.00,,,0.00,717,Wunderground v.1.15,2013-10-28 16:42:00,
2013-10-28 11:47:00,75.3,66.8,30.14,WNW,284,1.0,1.0,75,0.00,,,0.00,257,Wunderground v.1.15,2013-10-28 16:47:00,
2013-10-28 11:52:00,75.7,66.4,30.13,SSW,198,1.0,5.0,73,0.00,,,0.00,700,Wunderground v.1.15,2013-10-28 16:52:00,
2013-10-28 11:57:00,75.9,66.6,30.13,SW,231,0.0,5.0,73,0.00,,,0.00,738,Wunderground v.1.15,2013-10-28 16:57:00,
2013-10-28 12:02:00,76.2,66.5,30.13,WSW,240,0.0,1.0,72,0.00,,,0.00,156,Wunderground v.1.15,2013-10-28 17:02:00,
2013-10-28 12:07:00,76.2,66.5,30.13,WSW,239,0.0,1.0,72,0.00,,,0.00,780,Wunderground v.1.15,2013-10-28 17:07:00,
2013-10-28 12:12:00,76.5,66.8,30.13,SW,225,0.0,1.0,72,0.00,,,0.00,830,Wunderground v.1.15,2013-10-28 17:12:00,
2013-10-28 12:17:00,76.9,66.4,30.13,West,273,0.0,1.0,70,0.00,,,0.00,230,Wunderground v.1.15,2013-10-28 17:17:00,
2013-10-28 12:22:00,76.5,66.4,30.13,SW,231,0.0,3.0,71,0.00,,,0.00,267,Wunderground v.1.15,2013-10-28 17:22:00,
2013-10-28 12:33:00,76.6,67.3,30.12,WSW,237,1.0,5.0,73,0.00,,,0.00,686,Wunderground v.1.15,2013-10-28 17:33:00,
2013-10-28 12:38:00,76.7,66.6,30.12,WSW,248,1.0,5.0,71,0.00,,,0.00,146,Wunderground v.1.15,2013-10-28 17:38:00,
2013-10-28 12:43:00,76.3,66.6,30.12,West,279,0.0,1.0,72,0.00,,,0.00,146,Wunderground v.1.15,2013-10-28 17:43:00,
2013-10-28 12:48:00,75.9,66.2,30.12,West,267,0.0,1.0,72,0.00,,,0.00,151,Wunderground v.1.15,2013-10-28 17:48:00,
2013-10-28 12:54:00,75.8,65.7,30.11,West,267,0.0,1.0,71,0.00,,,0.00,132,Wunderground v.1.15,2013-10-28 17:54:00,
2013-10-28 12:59:00,75.8,66.1,30.11,West,267,0.0,1.0,72,0.00,,,0.00,178,Wunderground v.1.15,2013-10-28 17:59:00,
2013-10-28 13:05:00,76.2,65.7,30.11,SW,223,0.0,5.0,70,0.00,,,0.00,788,Wunderground v.1.15,2013-10-28 18:05:00,
2013-10-28 13:10:00,76.9,65.5,30.11,SW,226,1.0,1.0,68,0.00,,,0.00,786,Wunderground v.1.15,2013-10-28 18:10:00,
2013-10-28 13:15:00,77.5,66.5,30.10,South,183,1.0,6.0,69,0.00,,,0.00,756,Wunderground v.1.15,2013-10-28 18:15:00,
2013-10-28 13:23:00,78.1,65.4,30.10,SW,223,0.0,1.0,65,0.00,,,0.00,826,Wunderground v.1.15,2013-10-28 18:23:00,
2013-10-28 13:28:00,78.3,66.0,30.10,SW,236,1.0,1.0,66,0.00,,,0.00,221,Wunderground v.1.15,2013-10-28 18:28:00,
2013-10-28 13:33:00,78.3,66.0,30.09,WSW,237,1.0,1.0,66,0.00,,,0.00,227,Wunderground v.1.15,2013-10-28 18:33:00,
2013-10-28 13:38:00,78.1,66.7,30.09,WSW,237,0.0,1.0,68,0.00,,,0.00,791,Wunderground v.1.15,2013-10-28 18:38:00,
2013-10-28 13:43:00,78.7,66.4,30.09,WSW,246,1.0,4.0,66,0.00,,,0.00,740,Wunderground v.1.15,2013-10-28 18:43:00,
2013-10-28 13:48:00,78.7,65.5,30.09,WSW,245,1.0,5.0,64,0.00,,,0.00,735,Wunderground v.1.15,2013-10-28 18:48:00,
2013-10-28 13:56:00,78.7,65.0,30.08,SW,228,0.0,1.0,63,0.00,,,0.00,204,Wunderground v.1.15,2013-10-28 18:56:00,
2013-10-28 14:01:00,78.7,64.6,30.08,SW,223,0.0,1.0,62,0.00,,,0.00,278,Wunderground v.1.15,2013-10-28 19:01:00,
2013-10-28 14:16:00,78.7,65.0,30.08,SW,230,1.0,4.0,63,0.00,,,0.00,229,Wunderground v.1.15,2013-10-28 19:16:00,
2013-10-28 14:22:00,78.7,65.5,30.08,SW,227,0.0,1.0,64,0.00,,,0.00,176,Wunderground v.1.15,2013-10-28 19:22:00,
2013-10-28 14:27:00,78.7,65.0,30.08,SW,220,0.0,1.0,63,0.00,,,0.00,626,Wunderground v.1.15,2013-10-28 19:27:00,
2013-10-28 14:32:00,78.7,65.5,30.08,South,181,0.0,1.0,64,0.00,,,0.00,622,Wunderground v.1.15,2013-10-28 19:32:00,
2013-10-28 14:37:00,78.8,65.1,30.08,SW,236,0.0,1.0,63,0.00,,,0.00,629,Wunderground v.1.15,2013-10-28 19:37:00,
2013-10-28 14:42:00,79.1,67.2,30.07,South,179,0.0,1.0,67,0.00,,,0.00,619,Wunderground v.1.15,2013-10-28 19:42:00,
2013-10-28 14:47:00,79.4,66.2,30.07,South,190,0.0,1.0,64,0.00,,,0.00,125,Wunderground v.1.15,2013-10-28 19:47:00,
2013-10-28 14:52:00,79.0,64.9,30.07,SSW,206,0.0,1.0,62,0.00,,,0.00,503,Wunderground v.1.15,2013-10-28 19:52:00,
2013-10-28 14:57:00,78.7,64.6,30.07,NW,305,0.0,1.0,62,0.00,,,0.00,93,Wunderground v.1.15,2013-10-28 19:57:00,
2013-10-28 15:03:00,78.0,64.8,30.07,NW,304,0.0,1.0,64,0.00,,,0.00,165,Wunderground v.1.15,2013-10-28 20:03:00,
2013-10-28 15:08:00,78.1,64.5,30.07,NW,304,0.0,1.0,63,0.00,,,0.00,116,Wunderground v.1.15,2013-10-28 20:08:00,
2013-10-28 15:13:00,78.3,64.7,30.07,NW,304,0.0,1.0,63,0.00,,,0.00,510,Wunderground v.1.15,2013-10-28 20:13:00,
2013-10-28 15:18:00,78.5,64.9,30.07,NW,304,0.0,1.0,63,0.00,,,0.00,548,Wunderground v.1.15,2013-10-28 20:18:00,
2013-10-28 15:23:00,78.7,64.6,30.07,NW,304,0.0,1.0,62,0.00,,,0.00,566,Wunderground v.1.15,2013-10-28 20:23:00,
2013-10-28 15:33:00,79.7,65.5,30.07,WSW,253,0.0,2.0,62,0.00,,,0.00,519,Wunderground v.1.15,2013-10-28 20:33:00,
2013-10-28 15:38:00,79.8,64.2,30.07,WSW,241,1.0,3.0,59,0.00,,,0.00,176,Wunderground v.1.15,2013-10-28 20:38:00,
2013-10-28 15:43:00,79.5,63.9,30.07,West,261,1.0,1.0,59,0.00,,,0.00,223,Wunderground v.1.15,2013-10-28 20:43:00,
2013-10-28 15:49:00,79.5,63.9,30.07,West,262,0.0,1.0,59,0.00,,,0.00,420,Wunderground v.1.15,2013-10-28 20:49:00,
2013-10-28 15:54:00,79.6,64.0,30.07,West,259,0.0,1.0,59,0.00,,,0.00,434,Wunderground v.1.15,2013-10-28 20:54:00,
2013-10-28 15:59:00,79.7,64.6,30.07,WSW,244,1.0,1.0,60,0.00,,,0.00,190,Wunderground v.1.15,2013-10-28 20:59:00,
2013-10-28 16:04:00,79.6,65.0,30.07,WSW,244,1.0,1.0,61,0.00,,,0.00,439,Wunderground v.1.15,2013-10-28 21:04:00,
2013-10-28 16:09:00,79.9,64.8,30.07,SW,235,0.0,3.0,60,0.00,,,0.00,413,Wunderground v.1.15,2013-10-28 21:09:00,
2013-10-28 16:15:00,80.0,64.9,30.07,West,266,1.0,2.0,60,0.00,,,0.00,155,Wunderground v.1.15,2013-10-28 21:15:00,
2013-10-28 16:20:00,79.6,64.0,30.07,West,265,1.0,1.0,59,0.00,,,0.00,91,Wunderground v.1.15,2013-10-28 21:20:00,
2013-10-28 16:32:00,78.7,65.5,30.07,West,264,0.0,1.0,64,0.00,,,0.00,251,Wunderground v.1.15,2013-10-28 21:32:00,
2013-10-28 16:37:00,78.4,65.7,30.08,West,264,0.0,1.0,65,0.00,,,0.00,125,Wunderground v.1.15,2013-10-28 21:37:00,
2013-10-28 16:43:00,78.2,65.9,30.08,West,264,0.0,1.0,66,0.00,,,0.00,285,Wunderground v.1.15,2013-10-28 21:43:00,
2013-10-28 16:48:00,78.2,65.9,30.07,West,264,0.0,1.0,66,0.00,,,0.00,197,Wunderground v.1.15,2013-10-28 21:48:00,
2013-10-28 16:53:00,78.5,66.2,30.08,West,264,0.0,1.0,66,0.00,,,0.00,223,Wunderground v.1.15,2013-10-28 21:53:00,
2013-10-28 16:58:00,78.7,65.9,30.08,West,264,0.0,1.0,65,0.00,,,0.00,207,Wunderground v.1.15,2013-10-28 21:58:00,
2013-10-28 17:04:00,78.7,65.5,30.08,West,264,0.0,1.0,64,0.00,,,0.00,137,Wunderground v.1.15,2013-10-28 22:04:00,
2013-10-28 17:10:00,78.7,65.5,30.08,West,264,0.0,1.0,64,0.00,,,0.00,132,Wunderground v.1.15,2013-10-28 22:10:00,
2013-10-28 17:15:00,78.7,65.5,30.08,West,264,0.0,1.0,64,0.00,,,0.00,114,Wunderground v.1.15,2013-10-28 22:15:00,
2013-10-28 17:20:00,78.6,65.8,30.08,WNW,284,0.0,1.0,65,0.00,,,0.00,91,Wunderground v.1.15,2013-10-28 22:20:00,
2013-10-28 17:31:00,78.2,67.2,30.08,WNW,284,0.0,1.0,69,0.00,,,0.00,63,Wunderground v.1.15,2013-10-28 22:31:00,
2013-10-28 17:36:00,78.0,67.0,30.08,WNW,284,0.0,1.0,69,0.00,,,0.00,47,Wunderground v.1.15,2013-10-28 22:36:00,
2013-10-28 17:42:00,77.6,67.0,30.08,WNW,284,0.0,1.0,70,0.00,,,0.00,33,Wunderground v.1.15,2013-10-28 22:42:00,
2013-10-28 17:47:00,77.2,66.7,30.08,WNW,284,0.0,1.0,70,0.00,,,0.00,30,Wunderground v.1.15,2013-10-28 22:47:00,
2013-10-28 17:52:00,76.7,66.6,30.08,WNW,284,0.0,1.0,71,0.00,,,0.00,25,Wunderground v.1.15,2013-10-28 22:52:00,
2013-10-28 17:57:00,76.2,66.5,30.08,WNW,284,0.0,1.0,72,0.00,,,0.00,18,Wunderground v.1.15,2013-10-28 22:57:00,
2013-10-28 18:02:00,75.7,66.8,30.09,WNW,284,0.0,1.0,74,0.00,,,0.00,12,Wunderground v.1.15,2013-10-28 23:02:00,
2013-10-28 18:07:00,75.3,66.4,30.08,WNW,284,0.0,1.0,74,0.00,,,0.00,11,Wunderground v.1.15,2013-10-28 23:07:00,
2013-10-28 18:12:00,74.8,66.0,30.09,WNW,284,0.0,1.0,74,0.00,,,0.00,5,Wunderground v.1.15,2013-10-28 23:12:00,
2013-10-28 18:17:00,74.4,66.0,30.09,WNW,284,0.0,1.0,75,0.00,,,0.00,0,Wunderground v.1.15,2013-10-28 23:17:00,
2013-10-28 18:23:00,73.8,66.1,30.09,WNW,284,0.0,1.0,77,0.00,,,0.00,0,Wunderground v.1.15,2013-10-28 23:23:00,
2013-10-28 18:33:00,73.0,66.1,30.09,WNW,284,0.0,1.0,79,0.00,,,0.00,0,Wunderground v.1.15,2013-10-28 23:33:00,
2013-10-28 18:39:00,72.4,65.5,30.09,WNW,284,0.0,1.0,79,0.00,,,0.00,0,Wunderground v.1.15,2013-10-28 23:39:00,
2013-10-28 18:44:00,71.9,65.8,30.09,WNW,284,0.0,1.0,81,0.00,,,0.00,0,Wunderground v.1.15,2013-10-28 23:44:00,
2013-10-28 18:49:00,71.5,65.4,30.09,WNW,284,0.0,1.0,81,0.00,,,0.00,0,Wunderground v.1.15,2013-10-28 23:49:00,
2013-10-28 18:54:00,71.3,65.5,30.09,WNW,284,0.0,1.0,82,0.00,,,0.00,0,Wunderground v.1.15,2013-10-28 23:54:00,
2013-10-28 18:59:00,70.9,65.5,30.09,WNW,284,0.0,1.0,83,0.00,,,0.00,0,Wunderground v.1.15,2013-10-28 23:59:00,
2013-10-28 19:04:00,70.6,65.5,30.09,WNW,284,0.0,1.0,84,0.00,,,0.00,0,Wunderground v.1.15,2013-10-29 00:04:00,
2013-10-28 19:09:00,70.2,65.5,30.10,WNW,284,0.0,1.0,85,0.00,,,0.00,0,Wunderground v.1.15,2013-10-29 00:09:00,
2013-10-28 19:14:00,70.0,65.3,30.10,WNW,284,0.0,1.0,85,0.00,,,0.00,0,Wunderground v.1.15,2013-10-29 00:14:00,
2013-10-28 19:19:00,69.9,65.2,30.10,WNW,284,0.0,1.0,85,0.00,,,0.00,0,Wunderground v.1.15,2013-10-29 00:19:00,
2013-10-28 19:33:00,70.2,65.1,30.11,WNW,284,0.0,1.0,84,0.00,,,0.00,0,Wunderground v.1.15,2013-10-29 00:33:00,
2013-10-28 20:05:00,71.3,65.5,30.13,WNW,284,0.0,1.0,82,0.00,,,0.00,0,Wunderground v.1.15,2013-10-29 01:05:00,
2013-10-28 20:10:00,71.3,65.5,30.13,WNW,284,0.0,1.0,82,0.00,,,0.00,0,Wunderground v.1.15,2013-10-29 01:10:00,
2013-10-28 20:15:00,71.3,65.2,30.13,WNW,284,0.0,1.0,81,0.00,,,0.00,0,Wunderground v.1.15,2013-10-29 01:15:00,
2013-10-28 20:20:00,71.3,65.2,30.13,WNW,284,0.0,1.0,81,0.00,,,0.00,0,Wunderground v.1.15,2013-10-29 01:20:00,
2013-10-28 20:27:00,71.2,65.1,30.13,WNW,284,0.0,1.0,81,0.00,,,0.00,0,Wunderground v.1.15,2013-10-29 01:27:00,
2013-10-28 20:32:00,71.0,64.9,30.13,WNW,284,0.0,1.0,81,0.00,,,0.00,0,Wunderground v.1.15,2013-10-29 01:32:00,
2013-10-28 20:37:00,70.8,64.7,30.13,WNW,284,0.0,1.0,81,0.00,,,0.00,0,Wunderground v.1.15,2013-10-29 01:37:00,
2013-10-28 20:43:00,70.6,64.8,30.13,WNW,284,0.0,1.0,82,0.00,,,0.00,0,Wunderground v.1.15,2013-10-29 01:43:00,
2013-10-28 20:48:00,70.3,64.5,30.13,WNW,284,0.0,1.0,82,0.00,,,0.00,0,Wunderground v.1.15,2013-10-29 01:48:00,
2013-10-28 20:53:00,70.1,64.7,30.13,WNW,284,0.0,1.0,83,0.00,,,0.00,0,Wunderground v.1.15,2013-10-29 01:53:00,
2013-10-28 20:58:00,69.9,64.8,30.14,WNW,284,0.0,1.0,84,0.00,,,0.00,0,Wunderground v.1.15,2013-10-29 01:58:00,
2013-10-28 21:03:00,69.7,64.6,30.14,WNW,284,0.0,1.0,84,0.00,,,0.00,0,Wunderground v.1.15,2013-10-29 02:03:00,
2013-10-28 21:08:00,69.6,64.2,30.14,WNW,284,0.0,1.0,83,0.00,,,0.00,0,Wunderground v.1.15,2013-10-29 02:08:00,
2013-10-28 21:13:00,69.5,64.1,30.14,WNW,284,0.0,1.0,83,0.00,,,0.00,0,Wunderground v.1.15,2013-10-29 02:13:00,
2013-10-28 21:18:00,69.4,64.7,30.14,WNW,284,0.0,1.0,85,0.00,,,0.00,0,Wunderground v.1.15,2013-10-29 02:18:00,
2013-10-28 21:23:00,69.3,64.3,30.14,WNW,284,0.0,1.0,84,0.00,,,0.00,0,Wunderground v.1.15,2013-10-29 02:23:00,
2013-10-28 21:33:00,69.1,64.1,30.14,WNW,284,0.0,1.0,84,0.00,,,0.00,0,Wunderground v.1.15,2013-10-29 02:33:00,
2013-10-28 21:38:00,68.9,63.9,30.14,WNW,284,0.0,1.0,84,0.00,,,0.00,0,Wunderground v.1.15,2013-10-29 02:38:00,
2013-10-28 21:44:00,68.8,63.8,30.14,WNW,284,0.0,1.0,84,0.00,,,0.00,0,Wunderground v.1.15,2013-10-29 02:44:00,
2013-10-28 21:49:00,68.6,63.9,30.14,WNW,284,0.0,1.0,85,0.00,,,0.00,0,Wunderground v.1.15,2013-10-29 02:49:00,
2013-10-28 21:54:00,68.5,63.8,30.14,WNW,283,0.0,1.0,85,0.00,,,0.00,0,Wunderground v.1.15,2013-10-29 02:54:00,
2013-10-28 22:00:00,68.3,63.3,30.14,WNW,282,0.0,1.0,84,0.00,,,0.00,0,Wunderground v.1.15,2013-10-29 03:00:00,
2013-10-28 22:06:00,68.1,63.4,30.15,West,279,0.0,1.0,85,0.00,,,0.00,0,Wunderground v.1.15,2013-10-29 03:06:00,
2013-10-28 22:12:00,67.9,63.2,30.15,West,279,0.0,1.0,85,0.00,,,0.00,0,Wunderground v.1.15,2013-10-29 03:12:00,
2013-10-28 22:17:00,67.6,63.3,30.15,West,279,0.0,1.0,86,0.00,,,0.00,0,Wunderground v.1.15,2013-10-29 03:17:00,
2013-10-28 23:00:00,66.7,63.0,30.16,West,279,0.0,1.0,88,0.00,,,0.00,0,Wunderground v.1.15,2013-10-29 04:00:00,
2013-10-28 23:01:00,66.7,63.0,30.16,West,279,0.0,1.0,88,0.00,,,0.00,0,Wunderground v.1.15,2013-10-29 04:01:00,
2013-10-28 23:02:00,66.7,63.0,30.16,West,279,0.0,1.0,88,0.00,,,0.00,0,Wunderground v.1.15,2013-10-29 04:02:00,
2013-10-28 23:10:00,66.6,62.9,30.16,West,279,0.0,1.0,88,0.00,,,0.00,0,Wunderground v.1.15,2013-10-29 04:10:00,
2013-10-28 23:11:00,66.6,62.9,30.16,West,279,0.0,1.0,88,0.00,,,0.00,0,Wunderground v.1.15,2013-10-29 04:11:00,
2013-10-28 23:14:00,66.5,63.2,30.16,West,279,0.0,1.0,89,0.00,,,0.00,0,Wunderground v.1.15,2013-10-29 04:14:00,
2013-10-28 23:17:00,66.5,63.2,30.16,West,279,0.0,1.0,89,0.00,,,0.00,0,Wunderground v.1.15,2013-10-29 04:17:00,
2013-10-28 23:23:00,66.3,63.0,30.16,West,279,0.0,1.0,89,0.00,,,0.00,0,Wunderground v.1.15,2013-10-29 04:23:00,
2013-10-28 23:28:00,66.3,63.0,30.16,West,279,0.0,1.0,89,0.00,,,0.00,0,Wunderground v.1.15,2013-10-29 04:28:00,
2013-10-28 23:34:00,66.2,62.9,30.16,West,279,0.0,1.0,89,0.00,,,0.00,0,Wunderground v.1.15,2013-10-29 04:34:00,
2013-10-28 23:39:00,66.1,62.8,30.16,West,279,0.0,1.0,89,0.00,,,0.00,0,Wunderground v.1.15,2013-10-29 04:39:00,
2013-10-28 23:44:00,66.1,63.1,30.16,West,279,0.0,1.0,90,0.00,,,0.00,0,Wunderground v.1.15,2013-10-29 04:44:00,
2013-10-28 23:49:00,66.1,63.1,30.16,West,279,0.0,1.0,90,0.00,,,0.00,0,Wunderground v.1.15,2013-10-29 04:49:00,
2013-10-28 23:54:00,66.1,63.1,30.16,West,279,0.0,1.0,90,0.00,,,0.00,0,Wunderground v.1.15,2013-10-29 04:54:00,
2013-10-28 23:59:00,66.1,63.1,30.16,West,279,0.0,1.0,90,0.00,,,0.00,0,Wunderground v.1.15,2013-10-29 04:59:00,